Location: ?
(35.3436°N, 139.3168°E)
Time: 11:12:45
(UTC+00:00)

X-37B - Pass Details

Date: 10 May 2021
Orbit: 386 x 389 km, 45.0° (Epoch: 10 June)

Event Time Altitude Azimuth Distance (km) Brightness Sun altitude
Rises 10:05:01 0° 297° (WNW) 2,271 7.4 -6.2°
Reaches altitude 10° 10:07:49 10° 324° (NW) 1,416 4.6 -6.7°
Maximum altitude 10:09:38 14° 359° (N) 1,190 3.4 -7.0°
Drops below altitude 10° 10:11:28 10° 34° (NE) 1,415 3.4 -7.4°
Sets 10:14:15 0° 61° (ENE) 2,269 4.1 -7.9°
